Regional Weather Roundup
Issued by NWS

Home | Current Version | Previous Version | Text Only | Print | Product List | Glossary On
Versions: 1 2 3 4 5 6 7 8 9 10 11 12 13 14 15 16 17 18 19 20 21 22 23 24 25 26 27 28 29 30 31 32 33 34 35 36 37 38 39 40 41 42 43 44 45 46 47 48 49 50
000
ASUS46 KPQR 310610
RWROR

OREGON REGIONAL WEATHER ROUNDUP
NATIONAL WEATHER SERVICE PORTLAND OR
1000 PM PST FRI JAN 30 2015

NOTE: "FAIR" INDICATES FEW OR NO CLOUDS BELOW 12,000 FEET WITH
NO SIGNIFICANT WEATHER AND/OR OBSTRUCTIONS TO VISIBILITY.

ORZ001>013-310700-
NORTHWEST OREGON


CITY           SKY/WX    TMP DP  RH WIND       PRES   REMARKS
ASTORIA        FOG       37  36  96 CALM      30.22S VSB 1/2
6HR MIN TEMP:  37; 6HR MAX TEMP:  55;

NEWPORT        CLEAR     46  43  87 CALM      30.22R
PORTLAND       CLEAR     39  35  86 E3        30.24F
6HR MIN TEMP:  38; 6HR MAX TEMP:  48;

VANCOUVER WA   CLEAR     34  30  85 CALM      30.24F
6HR MIN TEMP:  33; 6HR MAX TEMP:  49;

SCAPPOOSE      CLEAR     35  34  96 NW3       30.24S FOG
6HR MIN TEMP:  34; 6HR MAX TEMP:  51;

HILLSBORO      CLEAR     36  35  96 CALM      30.23S
6HR MIN TEMP:  35; 6HR MAX TEMP:  55;

AURORA         CLEAR     38  33  82 CALM      30.23F
6HR MIN TEMP:  38; 6HR MAX TEMP:  53;

MCMINNVILLE    CLEAR     36  34  92 CALM      30.23F
6HR MIN TEMP:  36; 6HR MAX TEMP:  56;

SALEM          CLEAR     38  34  85 CALM      30.21F
6HR MIN TEMP:  37; 6HR MAX TEMP:  55;

CORVALLIS      CLEAR     37  36  93 W3        30.22F
EUGENE         FOG       38  37  97 S3        30.22F VSB 1/8
6HR MIN TEMP:  37; 6HR MAX TEMP:  49;

$$

ORZ021-028-310700-
SOUTHWEST OREGON


CITY           SKY/WX    TMP DP  RH WIND       PRES   REMARKS
NORTH BEND     CLEAR     45  45 100 CALM      30.19R
6HR MIN TEMP:  45; 6HR MAX TEMP:  54;

BROOKINGS      CLEAR     66  36  33 CALM      30.08S
ROSEBURG       CLOUDY    47  42  83 CALM      30.21F
6HR MIN TEMP:  47; 6HR MAX TEMP:  49;

SEXTON SUMMIT  CLEAR     48  27  44 E6        30.16S
6HR MIN TEMP:  42; 6HR MAX TEMP:  51;

MEDFORD        CLEAR     41  38  89 CALM      30.18S
6HR MIN TEMP:  38; 6HR MAX TEMP:  56;

$$

ORZ014>016-041-310700-
COLUMBIA GORGE


CITY           SKY/WX    TMP DP  RH WIND       PRES   REMARKS
TROUTDALE      CLEAR     41  33  73 E12       30.24F
6HR MIN TEMP:  41; 6HR MAX TEMP:  46;

THE DALLES     CLOUDY    40  34  79 E5        30.34F
6HR MIN TEMP:  40; 6HR MAX TEMP:  42;

$$

ORZ029>031-041-044-049-050-061>064-502-503-505>511-310700-
EASTERN OREGON


CITY           SKY/WX    TMP DP  RH WIND       PRES   REMARKS
REDMOND        CLOUDY    34  31  88 SE3       30.24F
6HR MIN TEMP:  34; 6HR MAX TEMP:  38;

BEND           CLOUDY    34  32  93 CALM      30.25S
PRINEVILLE     CLOUDY    34  32  93 CALM      30.26S
KLAMATH FALLS  CLEAR     30  20  66 CALM      30.20R
6HR MIN TEMP:  27; 6HR MAX TEMP:  54;

LAKEVIEW       CLEAR     32  25  74 N18       30.19S WCI  20
HERMISTON      CLOUDY    37  34  89 NW3       30.32F
6HR MIN TEMP:  37; 6HR MAX TEMP:  38;

PENDLETON      CLOUDY    34  31  88 CALM      30.27F
6HR MIN TEMP:  34; 6HR MAX TEMP:  35;

JOHN DAY       CLOUDY    33  31  92 E3        30.25F
MEACHAM        PTCLDY    26  23  88 CALM      30.18F
6HR MIN TEMP:  26; 6HR MAX TEMP:  35;

LA GRANDE      CLEAR     28  19  69 S6        30.19S WCI  22
6HR MIN TEMP:  28; 6HR MAX TEMP:  46;

BAKER CITY     CLEAR     24  22  91 NW5       30.18F WCI  18
6HR MIN TEMP:  23; 6HR MAX TEMP:  42;

BURNS          CLEAR     26  24  92 CALM      30.20S
6HR MIN TEMP:  26; 6HR MAX TEMP:  39;

ROME             N/A     24  21  88 S5        30.16S WCI  18
6HR MIN TEMP:  24; 6HR MAX TEMP:  39;

ONTARIO        CLEAR     31  28  89 CALM      30.21S
6HR MIN TEMP:  29; 6HR MAX TEMP:  49;

$$



USA.gov is the U.S. government's official web portal to all federal, state and local government web resources and services.